User: anonymous   Login
Location: Bergen
(60.3910°N, 5.3250°E)
Time: 08:36:38
(UTC+01:00)
Language:

Cosmos 1943 - Orbit

View from above orbital plane
View from above orbital plane
View from above satellite
View from above satellite

Ground track
Ground track

The orbit data is extracted from the following two-line orbital elements,

1 19119U 88039A   14328.86641814 -.00000027  00000-0  10804-4 0  2984
2 19119 071.0052 265.7987 0010465 027.7689 031.9310 14.14973121369780
Epoch (UTC): 24 November 2014 20:47:38
Eccentricity: 0.0010465
inclination: 71.0052°
perigee height: 835 km
apogee height: 850 km
right ascension of ascending node: 265.7987°
argument of perigee: 27.7689°
revolutions per day: 14.14973121
mean anomaly at epoch: 31.9310°
orbit number at epoch: 36978

The dashed part of the orbit path shows where the satellite is in the earth's shadow,  

DLR